| time (UTC) | temp C | wind direction | speed KPH | gust KPH | rain 1hr cm | rain 24hr cm | rain mn cm | humidity % | barometer mb |
| 20260902101604 | 15 | 181 | 3.2 | 4.8 | 0.00 | 0.00 | 0.00 | 79 | 1023.9 |
| 20260902100046 | 15 | 207 | 0.0 | 3.2 | 0.00 | 0.00 | 0.00 | 79 | 1024.3 |
| 20260902094551 | 15 | 0 | 0.0 | 3.2 | 0.00 | 0.00 | 0.00 | 80 | 1024.9 |
| 20260902093055 | 13 | 57 | 1.6 | 3.2 | 0.00 | 0.00 | 0.00 | 82 | 1025.2 |
| 20260902091551 | 13 | 201 | 0.0 | 6.4 | 0.00 | 0.00 | 0.00 | 84 | 1025.3 |
| 20260902090047 | 13 | 236 | 4.8 | 9.7 | 0.00 | 0.00 | 0.00 | 86 | 1025.6 |
| 20260902084551 | 13 | 0 | 1.6 | 4.8 | 0.00 | 0.00 | 0.00 | 84 | 1025.6 |
| 20260902083046 | 13 | 73 | 1.6 | 4.8 | 0.00 | 0.00 | 0.00 | 87 | 1025.6 |
| 20260902081552 | 12 | 217 | 3.2 | 4.8 | 0.00 | 0.00 | 0.00 | 88 | 1025.9 |
| 20260902080059 | 12 | 198 | 0.0 | 3.2 | 0.00 | 0.00 | 0.00 | 89 | 1026.1 |
| 20260902074546 | 12 | 222 | 3.2 | 6.4 | 0.00 | 0.00 | 0.00 | 90 | 1026.1 |
| 20260902073044 | 12 | 269 | 1.6 | 6.4 | 0.00 | 0.00 | 0.00 | 91 | 1026.1 |
| 20260902071555 | 12 | 169 | 0.0 | 3.2 | 0.00 | 0.00 | 0.00 | 92 | 1026.3 |
| 20260902070051 | 12 | 0 | 1.6 | 4.8 | 0.00 | 0.00 | 0.00 | 92 | 1026.3 |
| 20260902064555 | 12 | 0 | 0.0 | 3.2 | 0.00 | 0.00 | 0.00 | 93 | 1026.1 |
| 20260902063047 | 11 | 101 | 0.0 | 3.2 | 0.00 | 0.00 | 0.00 | 93 | 1026.2 |
| 20260902060050 | 11 | 63 | 0.0 | 3.2 | 0.00 | 0.00 | 0.00 | 93 | 1026.4 |
| 20260902054550 | 11 | 90 | 0.0 | 3.2 | 0.00 | 0.00 | 0.00 | 93 | 1026.5 |
| 20260902053057 | 11 | 209 | 1.6 | 3.2 | 0.00 | 0.00 | 0.00 | 92 | 1026.4 |
| 20260902051554 | 11 | 250 | 0.0 | 3.2 | 0.00 | 0.00 | 0.00 | 92 | 1026.3 |
| 20260902050100 | 11 | 208 | 1.6 | 4.8 | 0.00 | 0.00 | 0.00 | 91 | 1026.3 |
| 20260902044547 | 11 | 0 | 1.6 | 3.2 | 0.00 | 0.00 | 0.00 | 91 | 1026.1 |
| 20260902043044 | 11 | 85 | 0.0 | 3.2 | 0.00 | 0.00 | 0.00 | 91 | 1026.2 |
| 20260902041600 | 11 | 115 | 0.0 | 3.2 | 0.00 | 0.00 | 0.00 | 91 | 1025.9 |
| 20260902040050 | 11 | 163 | 0.0 | 3.2 | 0.00 | 0.00 | 0.00 | 91 | 1026.0 |
| 20260902034552 | 11 | 169 | 3.2 | 6.4 | 0.00 | 0.00 | 0.00 | 92 | 1026.0 |
| 20260902033105 | 11 | 196 | 3.2 | 8.0 | 0.00 | 0.00 | 0.00 | 92 | 1025.8 |
| 20260902031557 | 11 | 196 | 3.2 | 9.7 | 0.00 | 0.00 | 0.00 | 92 | 1025.6 |
| 20260902030043 | 11 | 184 | 3.2 | 6.4 | 0.00 | 0.00 | 0.00 | 91 | 1025.6 |
| 20260902024557 | 11 | 209 | 1.6 | 6.4 | 0.00 | 0.00 | 0.00 | 90 | 1025.5 |
| 20260902023104 | 11 | 203 | 1.6 | 4.8 | 0.00 | 0.00 | 0.00 | 90 | 1025.2 |
| 20260902021608 | 11 | 212 | 1.6 | 3.2 | 0.00 | 0.00 | 0.00 | 88 | 1025.3 |
| 20260902020055 | 11 | 205 | 1.6 | 3.2 | 0.00 | 0.00 | 0.00 | 88 | 1025.3 |
| 20260902014553 | 11 | 316 | 0.0 | 3.2 | 0.00 | 0.00 | 0.00 | 88 | 1025.3 |
| 20260902013048 | 10 | 227 | 0.0 | 3.2 | 0.00 | 0.00 | 0.00 | 89 | 1025.3 |
| 20260902011548 | 10 | 190 | 0.0 | 3.2 | 0.00 | 0.00 | 0.00 | 87 | 1025.5 |
| 20260902010057 | 10 | 197 | 3.2 | 4.8 | 0.00 | 0.00 | 0.00 | 84 | 1025.2 |
| 20260902004558 | 11 | 197 | 1.6 | 3.2 | 0.00 | 0.00 | 0.00 | 83 | 1025.2 |
| 20260902003056 | 11 | 232 | 0.0 | 3.2 | 0.00 | 0.00 | 0.00 | 83 | 1025.0 |
| 20260902001547 | 11 | 0 | 0.0 | 3.2 | 0.00 | 0.00 | 0.00 | 79 | 1025.1 |
| 20260902000054 | 11 | 344 | 3.2 | 9.7 | 0.00 | 0.00 | 0.00 | 79 | 1025.0 |
| 20260901234611 | 12 | 10 | 0.0 | 3.2 | 0.00 | 0.00 | 0.00 | 79 | 1025.1 |
| 20260901233055 | 12 | 57 | 0.0 | 3.2 | 0.00 | 0.00 | 0.00 | 77 | 1025.2 |
| 20260901231551 | 13 | 360 | 0.0 | 3.2 | 0.00 | 0.00 | 0.00 | 76 | 1025.1 |
| 20260901230123 | 13 | 360 | 0.0 | 3.2 | 0.00 | 0.00 | 0.00 | 75 | 1025.0 |
| 20260901224556 | 13 | 0 | 0.0 | 6.4 | 0.00 | 0.00 | 0.00 | 73 | 1025.0 |
| 20260901223113 | 14 | 188 | 1.6 | 1.6 | 0.00 | 0.00 | 0.00 | 71 | 1025.0 |
| 20260901221549 | 14 | 192 | 3.2 | 4.8 | 0.00 | 0.00 | 0.00 | 71 | 1025.2 |
| 20260901214556 | 14 | 202 | 1.6 | 4.8 | 0.00 | 0.00 | 0.00 | 70 | 1025.2 |
| 20260901213053 | 15 | 0 | 0.0 | 3.2 | 0.00 | 0.00 | 0.00 | 67 | 1025.2 |
| 20260901211559 | 16 | 126 | 1.6 | 3.2 | 0.00 | 0.00 | 0.00 | 64 | 1025.1 |
| 20260901210101 | 16 | 196 | 6.4 | 12.9 | 0.00 | 0.00 | 0.00 | 62 | 1024.9 |
| 20260901204555 | 16 | 194 | 6.4 | 9.7 | 0.00 | 0.00 | 0.00 | 63 | 1024.6 |
| 20260901203054 | 15 | 231 | 0.0 | 11.3 | 0.00 | 0.00 | 0.00 | 64 | 1024.1 |
| 20260901201604 | 14 | 346 | 6.4 | 11.3 | 0.00 | 0.00 | 0.00 | 68 | 1023.8 |
| 20260901200105 | 15 | 342 | 4.8 | 8.0 | 0.00 | 0.00 | 0.00 | 66 | 1023.7 |
| 20260901194605 | 15 | 13 | 6.4 | 12.9 | 0.00 | 0.00 | 0.00 | 67 | 1023.9 |
| 20260901193053 | 15 | 347 | 9.7 | 17.7 | 0.00 | 0.00 | 0.00 | 67 | 1024.0 |
| 20260901191549 | 16 | 349 | 8.0 | 14.5 | 0.00 | 0.00 | 0.00 | 62 | 1024.2 |
| 20260901190106 | 16 | 10 | 1.6 | 8.0 | 0.00 | 0.00 | 0.00 | 62 | 1024.4 |
| 20260901184553 | 17 | 360 | 4.8 | 9.7 | 0.00 | 0.00 | 0.00 | 61 | 1024.7 |
| 20260901183050 | 17 | 360 | 3.2 | 8.0 | 0.00 | 0.00 | 0.00 | 58 | 1024.4 |
| 20260901181554 | 17 | 9 | 3.2 | 6.4 | 0.00 | 0.00 | 0.00 | 59 | 1024.2 |
| 20260901180055 | 18 | 9 | 0.0 | 3.2 | 0.00 | 0.00 | 0.00 | 57 | 1024.3 |
| 20260901174551 | 18 | 0 | 0.0 | 3.2 | 0.00 | 0.00 | 0.00 | 56 | 1024.5 |
| 20260901173104 | 19 | 9 | 1.6 | 3.2 | 0.00 | 0.00 | 0.00 | 54 | 1024.1 |
| 20260901171554 | 20 | 0 | 0.0 | 3.2 | 0.00 | 0.00 | 0.00 | 51 | 1024.2 |
| 20260901170050 | 21 | 121 | 0.0 | 3.2 | 0.00 | 0.00 | 0.00 | 49 | 1024.1 |
| 20260901164626 | 21 | 0 | 0.0 | 3.2 | 0.00 | 0.00 | 0.00 | 49 | 1024.0 |
| 20260901163056 | 21 | 157 | 1.6 | 3.2 | 0.00 | 0.00 | 0.00 | 49 | 1023.8 |
| 20260901161551 | 21 | 193 | 0.0 | 3.2 | 0.00 | 0.00 | 0.00 | 50 | 1023.7 |
| 20260901160050 | 22 | 0 | 0.0 | 3.2 | 0.00 | 0.00 | 0.00 | 47 | 1023.6 |
| 20260901154545 | 22 | 158 | 0.0 | 3.2 | 0.00 | 0.00 | 0.00 | 48 | 1023.5 |
| 20260901153054 | 23 | 0 | 0.0 | 3.2 | 0.00 | 0.00 | 0.00 | 46 | 1023.2 |
| 20260901151555 | 25 | 0 | 0.0 | 0.0 | 0.00 | 0.00 | 0.00 | 43 | 1023.0 |
| 20260901150046 | 25 | 0 | 0.0 | 3.2 | 0.00 | 0.00 | 0.00 | 44 | 1023.0 |
| 20260901144559 | 25 | 161 | 0.0 | 3.2 | 0.00 | 0.00 | 0.00 | 46 | 1022.9 |
| 20260901143055 | 25 | 0 | 0.0 | 3.2 | 0.00 | 0.00 | 0.00 | 39 | 1022.9 |
| 20260901141556 | 26 | 190 | 0.0 | 4.8 | 0.00 | 0.00 | 0.00 | 39 | 1022.7 |
| 20260901140048 | 26 | 163 | 0.0 | 9.7 | 0.00 | 0.00 | 0.00 | 40 | 1022.8 |
| 20260901134547 | 26 | 111 | 0.0 | 4.8 | 0.00 | 0.00 | 0.00 | 37 | 1023.0 |
| 20260901133047 | 26 | 80 | 1.6 | 4.8 | 0.00 | 0.00 | 0.00 | 37 | 1023.0 |
| 20260901131611 | 26 | 198 | 1.6 | 4.8 | 0.00 | 0.00 | 0.00 | 38 | 1023.3 |
| 20260901130108 | 26 | 9 | 0.0 | 8.0 | 0.00 | 0.00 | 0.00 | 36 | 1023.2 |
| 20260901124559 | 26 | 148 | 1.6 | 4.8 | 0.00 | 0.00 | 0.00 | 35 | 1023.3 |
| 20260901123055 | 25 | 145 | 0.0 | 6.4 | 0.00 | 0.00 | 0.00 | 40 | 1023.4 |
| 20260901121558 | 25 | 178 | 1.6 | 9.7 | 0.00 | 0.00 | 0.00 | 40 | 1023.4 |
| 20260901120104 | 25 | 148 | 3.2 | 9.7 | 0.00 | 0.00 | 0.00 | 38 | 1023.5 |
| 20260901114600 | 24 | 211 | 4.8 | 9.7 | 0.00 | 0.00 | 0.00 | 42 | 1023.5 |
| 20260901113050 | 24 | 205 | 4.8 | 9.7 | 0.00 | 0.00 | 0.00 | 44 | 1023.9 |
| 20260901111552 | 24 | 178 | 1.6 | 6.4 | 0.00 | 0.00 | 0.00 | 41 | 1024.4 |
| 20260901110059 | 23 | 182 | 0.0 | 6.4 | 0.00 | 0.00 | 0.00 | 45 | 1024.9 |
| 20260901104553 | 22 | 242 | 1.6 | 4.8 | 0.00 | 0.00 | 0.00 | 43 | 1025.2 |
| 20260901103052 | 22 | 206 | 0.0 | 6.4 | 0.00 | 0.00 | 0.00 | 42 | 1025.4 |